Location: Observatory
(52.1446°N, 0.4624°W)
Time: 05:14:44
(UTC+01:00)

ISS - Pass Details

Date: 28 July 2021
Orbit: 419 x 421 km, 51.6° (Epoch: 03 August)

Event Time Altitude Azimuth Distance (km) Brightness Sun altitude
Rises 22:56:05 0° 279° (W) 2,374 0.7 -13.5°
Reaches altitude 10° 22:58:53 10° 254° (WSW) 1,505 -0.8 -13.7°
Maximum altitude 23:00:48 14° 219° (SW) 1,260 -1.5 -13.9°
Enters shadow 23:01:35 14° 204° (SSW) 1,302 -1.6 -13.9°
